Location: Ostrava
(49.8330°N, 18.2830°E)
Time: 01:26:20
(UTC+02:00)

Iridium 39 - Visible Passes

Search period start: 04 September 2015 00:00
Search period end: 14 September 2015 00:00
Orbit: 776 x 779 km, 86.4° (Epoch: 02 September)

Date Brightness Start Highest point End Pass type
(mag) Time Alt. Az. Time Alt. Az. Time Alt. Az.
04 Sep 6.6 20:58:43 21° SE 21:01:31 38° E 21:06:21 10° NNE visible
04 Sep 7.5 22:39:10 18° SW 22:42:22 33° WNW 22:47:02 10° NNW visible
05 Sep 7.2 20:24:57 13° SE 20:28:12 23° E 20:32:18 10° NNE visible
05 Sep 6.6 22:05:24 22° SSW 22:08:36 55° W 22:13:45 10° N visible
06 Sep 7.7 19:52:30 10° ESE 19:54:59 14° ENE 19:57:41 10° NE visible
06 Sep 5.9 21:31:36 22° S 21:34:59 88° E 21:40:15 10° N visible
06 Sep 8.6 23:13:32 10° WSW 23:16:37 15° WNW 23:19:29 10° NNW visible
07 Sep 6.2 20:57:45 18° SSE 21:01:30 52° E 21:06:35 10° NNE visible
07 Sep 8.0 22:38:20 10° SW 22:42:37 24° WNW 22:46:49 10° NNW visible
08 Sep 6.8 20:23:50 11° SE 20:28:07 31° E 20:32:42 10° NNE visible
08 Sep 7.2 22:04:17 12° SW 22:08:46 40° WNW 22:13:40 10° N visible
09 Sep 7.4 19:51:20 10° ESE 19:54:49 19° ENE 19:58:29 10° NNE visible
09 Sep 6.3 21:30:18 12° SSW 21:35:04 68° W 21:40:18 10° N visible
09 Sep 8.9 23:15:28 10° W 23:17:01 11° WNW 23:18:17 10° NW visible
10 Sep 5.9 20:56:19 10° S 21:01:31 72° E 21:06:44 10° N visible
10 Sep 8.5 22:39:16 10° WSW 22:42:55 18° WNW 22:46:25 10° NNW visible
11 Sep 6.4 20:23:11 10° SSE 20:28:03 42° E 20:32:59 10° NNE visible
11 Sep 7.8 22:04:24 10° SW 22:08:59 30° WNW 22:13:31 10° NNW visible
12 Sep 7.0 19:50:32 10° SE 19:54:42 26° E 19:58:59 10° NNE visible
12 Sep 6.9 21:30:08 10° SSW 21:35:11 49° W 21:40:16 10° N visible
13 Sep 6.0 20:56:20 10° S 21:01:33 83° W 21:06:49 10° N visible
13 Sep 8.8 22:40:36 10° W 22:43:17 14° WNW 22:45:44 10° NW visible
